| time (UTC) | temp F | wind direction | speed knots | gust knots | rain 1hr in | rain 24hr in | rain mn in | humidity % | barometer mb |
| 20260506044504 | 48 | 346 | 0.0 | 2.6 | 0.00 | 0.00 | 0.00 | 90 | 1014.3 |
| 20260506043006 | 48 | 346 | 0.0 | 2.6 | 0.00 | 0.00 | 0.00 | 89 | 1014.3 |
| 20260506041504 | 48 | 346 | 0.9 | 5.2 | 0.00 | 0.00 | 0.00 | 89 | 1014.4 |
| 20260506040006 | 49 | 333 | 2.6 | 7.0 | 0.00 | 0.00 | 0.00 | 89 | 1014.5 |
| 20260506034504 | 48 | 315 | 1.7 | 5.2 | 0.00 | 0.00 | 0.00 | 88 | 1014.6 |
| 20260506033006 | 48 | 0 | 0.0 | 0.0 | 0.00 | 0.00 | 0.00 | 87 | 1014.6 |
| 20260506031504 | 49 | 298 | 0.0 | 2.6 | 0.00 | 0.00 | 0.00 | 86 | 1014.7 |
| 20260506024504 | 49 | 298 | 0.9 | 2.6 | 0.00 | 0.00 | 0.00 | 85 | 1014.8 |
| 20260506023006 | 49 | 298 | 1.7 | 5.2 | 0.00 | 0.00 | 0.00 | 84 | 1014.7 |
| 20260506020006 | 49 | 297 | 3.5 | 6.1 | 0.00 | 0.00 | 0.00 | 84 | 1014.9 |
| 20260506014504 | 50 | 298 | 2.6 | 5.2 | 0.00 | 0.00 | 0.00 | 83 | 1014.9 |
| 20260506013006 | 50 | 297 | 1.7 | 5.2 | 0.00 | 0.00 | 0.00 | 83 | 1015.0 |
| 20260506011504 | 50 | 297 | 2.6 | 5.2 | 0.00 | 0.00 | 0.00 | 83 | 1015.1 |
| 20260506010006 | 50 | 294 | 1.7 | 5.2 | 0.00 | 0.00 | 0.00 | 82 | 1015.2 |
| 20260506004504 | 50 | 294 | 0.0 | 3.5 | 0.00 | 0.00 | 0.00 | 82 | 1015.3 |
| 20260506003006 | 50 | 294 | 0.9 | 4.3 | 0.00 | 0.00 | 0.00 | 82 | 1015.3 |
| 20260506001503 | 50 | 262 | 0.9 | 3.5 | 0.00 | 0.00 | 0.00 | 81 | 1015.3 |
| 20260506000006 | 51 | 156 | 0.0 | 2.6 | 0.00 | 0.00 | 0.00 | 81 | 1015.4 |
| 20260505234504 | 51 | 0 | 0.0 | 0.0 | 0.00 | 0.00 | 0.00 | 80 | 1015.3 |
| 20260505233006 | 51 | 0 | 0.0 | 0.0 | 0.00 | 0.00 | 0.00 | 80 | 1015.4 |
| 20260505231504 | 51 | 0 | 0.0 | 0.0 | 0.00 | 0.00 | 0.00 | 80 | 1015.5 |
| 20260505230008 | 50 | 0 | 0.0 | 0.0 | 0.00 | 0.00 | 0.00 | 81 | 1015.6 |
| 20260505224504 | 50 | 0 | 0.0 | 0.0 | 0.00 | 0.00 | 0.00 | 81 | 1015.7 |
| 20260505223006 | 50 | 0 | 0.0 | 0.0 | 0.00 | 0.00 | 0.00 | 83 | 1015.9 |
| 20260505221504 | 50 | 0 | 0.0 | 0.0 | 0.00 | 0.00 | 0.00 | 83 | 1015.9 |
| 20260505220006 | 51 | 0 | 0.0 | 0.0 | 0.00 | 0.00 | 0.00 | 84 | 1016.0 |
| 20260505214504 | 51 | 167 | 0.9 | 5.2 | 0.00 | 0.00 | 0.00 | 83 | 1016.0 |
| 20260505213006 | 51 | 167 | 0.9 | 4.3 | 0.00 | 0.00 | 0.00 | 83 | 1016.0 |
| 20260505211504 | 51 | 168 | 0.9 | 4.3 | 0.00 | 0.00 | 0.00 | 83 | 1016.0 |
| 20260505203006 | 51 | 158 | 0.9 | 4.3 | 0.00 | 0.00 | 0.00 | 83 | 1016.0 |
| 20260505201504 | 51 | 112 | 0.9 | 6.1 | 0.00 | 0.00 | 0.00 | 82 | 1016.0 |
| 20260505200006 | 51 | 172 | 1.7 | 7.0 | 0.00 | 0.00 | 0.00 | 82 | 1016.0 |
| 20260505194504 | 51 | 170 | 0.9 | 7.8 | 0.00 | 0.00 | 0.00 | 81 | 1015.8 |
| 20260505191506 | 52 | 170 | 1.7 | 7.0 | 0.00 | 0.00 | 0.00 | 80 | 1015.8 |
| 20260505190006 | 51 | 160 | 1.7 | 8.7 | 0.00 | 0.00 | 0.00 | 80 | 1015.7 |
| 20260505184504 | 52 | 168 | 1.7 | 8.7 | 0.00 | 0.00 | 0.00 | 81 | 1015.6 |
| 20260505183006 | 52 | 157 | 2.6 | 7.8 | 0.00 | 0.00 | 0.00 | 82 | 1015.6 |
| 20260505181505 | 51 | 144 | 3.5 | 10.4 | 0.00 | 0.00 | 0.00 | 82 | 1015.6 |
| 20260505180006 | 52 | 145 | 1.7 | 6.1 | 0.00 | 0.00 | 0.00 | 83 | 1015.7 |
| 20260505174504 | 52 | 120 | 4.3 | 8.7 | 0.00 | 0.00 | 0.00 | 81 | 1015.8 |
| 20260505173006 | 53 | 119 | 4.3 | 12.2 | 0.00 | 0.00 | 0.00 | 77 | 1015.7 |
| 20260505170006 | 56 | 337 | 5.2 | 13.9 | 0.00 | 0.00 | 0.00 | 68 | 1015.6 |
| 20260505164504 | 56 | 336 | 2.6 | 9.6 | 0.00 | 0.00 | 0.00 | 67 | 1015.6 |
| 20260505163006 | 57 | 325 | 7.0 | 16.5 | 0.00 | 0.00 | 0.00 | 65 | 1015.6 |
| 20260505153006 | 58 | 341 | 4.3 | 12.2 | 0.00 | 0.00 | 0.00 | 60 | 1015.7 |
| 20260505151504 | 58 | 320 | 5.2 | 12.2 | 0.00 | 0.00 | 0.00 | 62 | 1015.7 |
| 20260505124504 | 58 | 302 | 5.2 | 20.9 | 0.00 | 0.00 | 0.00 | 63 | 1016.1 |
| 20260505123006 | 56 | 357 | 5.2 | 13.9 | 0.00 | 0.00 | 0.00 | 63 | 1016.2 |
| 20260505121504 | 56 | 27 | 5.2 | 12.2 | 0.00 | 0.00 | 0.00 | 63 | 1016.1 |
| 20260505120006 | 56 | 13 | 7.0 | 21.7 | 0.00 | 0.00 | 0.00 | 62 | 1016.1 |
| 20260505114504 | 56 | 43 | 7.0 | 15.6 | 0.00 | 0.00 | 0.00 | 60 | 1016.1 |
| 20260505101504 | 57 | 5 | 9.6 | 26.9 | 0.00 | 0.00 | 0.00 | 61 | 1016.4 |
| 20260505100006 | 57 | 356 | 7.8 | 18.2 | 0.00 | 0.00 | 0.00 | 63 | 1016.5 |
| 20260505094504 | 57 | 340 | 7.8 | 17.4 | 0.00 | 0.00 | 0.00 | 67 | 1016.4 |
| 20260505093006 | 55 | 357 | 8.7 | 20.0 | 0.00 | 0.00 | 0.00 | 71 | 1016.5 |
| 20260505091503 | 55 | 5 | 7.8 | 23.5 | 0.00 | 0.00 | 0.00 | 69 | 1016.5 |
| 20260505090005 | 54 | 9 | 7.0 | 17.4 | 0.00 | 0.00 | 0.00 | 72 | 1016.4 |
| 20260505083005 | 53 | 23 | 6.1 | 13.0 | 0.00 | 0.00 | 0.00 | 75 | 1016.6 |
| 20260505081504 | 53 | 36 | 6.1 | 19.1 | 0.00 | 0.00 | 0.00 | 76 | 1016.5 |
| 20260505074504 | 52 | 354 | 8.7 | 17.4 | 0.00 | 0.00 | 0.00 | 76 | 1016.5 |
| 20260505073006 | 53 | 346 | 7.8 | 20.0 | 0.00 | 0.00 | 0.00 | 76 | 1016.4 |
| 20260505071504 | 52 | 331 | 7.0 | 17.4 | 0.00 | 0.00 | 0.00 | 77 | 1016.4 |
| 20260505070005 | 51 | 330 | 7.0 | 17.4 | 0.00 | 0.00 | 0.00 | 78 | 1016.4 |
| 20260505064505 | 51 | 334 | 6.1 | 15.6 | 0.00 | 0.00 | 0.00 | 79 | 1016.4 |
| 20260505063005 | 50 | 325 | 5.2 | 13.9 | 0.00 | 0.00 | 0.00 | 80 | 1016.4 |
| 20260505061504 | 49 | 342 | 6.1 | 16.5 | 0.00 | 0.00 | 0.00 | 82 | 1016.4 |
| 20260505060005 | 47 | 333 | 6.1 | 14.8 | 0.00 | 0.00 | 0.00 | 84 | 1016.4 |
| 20260505054504 | 47 | 328 | 5.2 | 13.9 | 0.00 | 0.00 | 0.00 | 83 | 1016.3 |
| 20260505053005 | 47 | 344 | 7.8 | 16.5 | 0.00 | 0.00 | 0.00 | 81 | 1016.3 |